Regional Weather Roundup
Issued by NWS

Home | Current Version | Previous Version | Graphics & Text | Print | Product List | Glossary On
Versions: 1 2 3 4 5 6 7 8 9 10 11 12 13 14 15 16 17 18 19 20 21 22 23 24 25 26 27 28 29 30 31 32 33 34 35 36 37 38 39 40 41 42 43 44 45 46 47 48 49 50
000
ASUS43 KLSX 231059
RWRMO

WEATHER SUMMARY FOR MISSOURI
NATIONAL WEATHER SERVICE SPRINGFIELD MO
600 AM CDT TUE SEP 23 2014

NOTE: "FAIR" INDICATES FEW OR NO CLOUDS BELOW 12,000 FEET WITH NO
       SIGNIFICANT WEATHER AND/OR OBSTRUCTIONS TO VISIBILITY.
       CURRENT SKY AND/OR WEATHER CONDITIONS ARE NOT AVAILABLE FOR
       CHILLICOTHE AND FARMINGTON.

MOZ001>031-035>038-043-044-053-054-231200-
...NORTHERN AND WESTERN MISSOURI...

CITY           SKY/WX    TMP DP  RH WIND       PRES   REMARKS
KANSAS CTY INT MOCLDY    56  51  84 SE8       30.22R
KANSAS C DTWN  MOCLDY    61  49  64 S9        30.22S
LEE`S SUMMIT   CLEAR     56  50  80 S5        30.24R
ST JOSEPH      MOCLDY    55  52  89 S3        30.21R
KIRKSVILLE     CLEAR     48  32  53 S6        30.27S

$$
MOZ066>068-077>081-088>096-101>105-231200-
...SOUTHWEST MISSOURI...

CITY           SKY/WX    TMP DP  RH WIND       PRES   REMARKS
SPRINGFIELD    CLEAR     54  48  80 SE9       30.24S
JOPLIN         PTCLDY    53  50  89 E6        30.23S

$$
MOZ032>034-039>042-045>050-055>058-069>072-231200-
...CENTRAL MISSOURI...

CITY           SKY/WX    TMP DP  RH WIND       PRES   REMARKS
COLUMBIA       CLEAR     51  47  86 SE5       30.27R
JEFFERSON CITY PTCLDY    46  45  96 E3        30.27R
ROLLA          PTCLDY    50  44  80 SE8       30.26R
SEDALIA        CLEAR     50  47  89 S6        30.26R
WHITEMAN AFB   CLEAR     50  48  93 S5        30.24R
OSAGE BEACH    CLEAR     48  45  87 CALM      30.27R

$$
MOZ051-052-059>065-231200-
...EAST CENTRAL MISSOURI...

CITY           SKY/WX    TMP DP  RH WIND       PRES   REMARKS
ST LOUIS INTL  PTCLDY    52  49  89 E3        30.29R
SPIRIT OF STL  CLEAR     46  45  96 CALM      30.28R FOG
ST CHARLES     PTCLDY    50  47  89 CALM      30.28R

$$
MOZ072>076-082>087-097>100-106>115-231200-
...SOUTH CENTRAL AND SOUTHEAST MISSOURI...

CITY           SKY/WX    TMP DP  RH WIND       PRES   REMARKS
CAPE GIRARDEAU MOCLDY    42  41  96 CALM      30.28R FOG
FARMINGTON     CLEAR     45  43  93 CALM      30.30R
POPLAR BLUFF   CLEAR     46  42  86 N3        30.26R
WEST PLAINS    CLEAR     45  42  89 CALM      30.28R

$$



USA.gov is the U.S. government's official web portal to all federal, state and local government web resources and services.